EA4TN Weather Reports


time (UTC)temp
F
wind
direction
speed
knots
gust
knots
rain 1hr
in
rain 24hr
in
rain mn
in
humidity
%
barometer
mb
20260507110037 63 6 1.7 4.3 0.00 0.00 0.00 62 1010.8
20260507105017 63 41 2.6 5.2 0.00 0.00 0.00 62 1010.9
20260507104017 63 71 1.7 3.5 0.00 0.00 0.00 63 1011.0
20260507103017 62 112 0.9 3.5 0.00 0.00 0.00 63 1011.2
20260507102017 62 59 0.9 2.6 0.00 0.00 0.00 65 1011.3
20260507101015 61 55 1.7 5.2 0.00 0.00 0.00 66 1011.4
20260507100017 60 39 1.7 4.3 0.00 0.00 0.00 68 1011.3
20260507095015 60 54 2.6 5.2 0.00 0.00 0.00 68 1011.4
20260507094017 59 49 2.6 4.3 0.00 0.00 0.00 69 1011.4
20260507093015 59 45 1.7 5.2 0.00 0.00 0.00 69 1011.5
20260507092017 59 64 1.7 4.3 0.00 0.00 0.00 69 1011.5
20260507091017 58 17 1.7 5.2 0.00 0.00 0.00 71 1011.5
20260507090017 58 34 1.7 4.3 0.00 0.00 0.00 71 1011.6
20260507085017 57 49 1.7 6.1 0.00 0.00 0.00 73 1011.4
20260507084037 57 31 1.7 5.2 0.00 0.00 0.00 74 1011.4
20260507083017 56 35 1.7 5.2 0.00 0.00 0.00 75 1011.4
20260507082017 55 358 1.7 4.3 0.00 0.00 0.00 77 1011.5
20260507081017 54 343 0.9 3.5 0.00 0.00 0.00 80 1011.6
20260507080015 54 274 0.9 3.5 0.00 0.00 0.00 80 1011.5
20260507075016 54 67 2.6 8.7 0.00 0.00 0.00 80 1011.1
20260507074035 54 74 3.5 7.8 0.00 0.00 0.00 77 1011.3
20260507073015 53 52 3.5 6.1 0.00 0.00 0.00 77 1011.3
20260507072015 53 46 3.5 6.1 0.00 0.00 0.00 77 1011.3
20260507071035 53 41 2.6 5.2 0.00 0.00 0.00 77 1011.8
20260507070015 53 65 1.7 5.2 0.00 0.00 0.00 78 1011.8
20260507065015 53 45 3.5 5.2 0.00 0.00 0.00 77 1011.7
20260507064015 53 43 3.5 5.2 0.00 0.00 0.00 77 1011.6
20260507063015 52 49 3.5 6.1 0.00 0.00 0.00 77 1011.3
20260507062035 52 44 3.5 6.1 0.00 0.00 0.00 78 1011.2
20260507061035 52 40 3.5 7.0 0.00 0.00 0.00 78 1011.3
20260507060015 52 55 3.5 6.1 0.00 0.00 0.00 78 1011.2
20260507055015 52 45 3.5 7.0 0.00 0.00 0.00 78 1011.0
20260507054015 52 43 4.3 7.8 0.00 0.00 0.00 78 1011.0
20260507053015 52 41 3.5 6.1 0.00 0.00 0.00 77 1011.0
20260507052015 52 51 3.5 7.0 0.00 0.00 0.00 77 1011.0
20260507051035 52 48 2.6 5.2 0.00 0.00 0.00 77 1011.0
20260507050015 52 47 2.6 6.1 0.00 0.00 0.00 77 1011.0
20260507045035 52 49 3.5 5.2 0.00 0.00 0.00 76 1011.0
20260507044015 52 47 3.5 5.2 0.00 0.00 0.00 76 1010.8
20260507043035 52 40 2.6 6.1 0.00 0.00 0.00 76 1010.8
20260507042015 52 48 2.6 7.8 0.00 0.00 0.00 75 1010.7
20260507041055 52 42 3.5 7.0 0.00 0.00 0.00 75 1010.7
20260507040015 53 48 2.6 5.2 0.00 0.00 0.00 74 1010.9
20260507035015 53 41 1.7 3.5 0.00 0.00 0.00 74 1011.0
20260507034015 54 37 2.6 4.3 0.00 0.00 0.00 73 1010.8
20260507033035 54 64 0.9 2.6 0.00 0.00 0.00 73 1010.9
20260507032015 55 48 1.7 4.3 0.00 0.00 0.00 73 1010.9
20260507031015 55 68 1.7 3.5 0.00 0.00 0.00 73 1010.8
20260507030035 55 18 1.7 4.3 0.00 0.00 0.00 73 1010.7
20260507025015 55 22 1.7 4.3 0.00 0.00 0.00 73 1010.7
20260507024015 55 23 1.7 4.3 0.00 0.00 0.00 73 1010.8
20260507023015 55 40 1.7 2.6 0.00 0.00 0.00 73 1010.7
20260507022015 55 53 1.7 5.2 0.00 0.00 0.00 73 1010.7
20260507021015 55 33 2.6 4.3 0.00 0.00 0.00 72 1010.9
20260507020015 55 33 2.6 8.7 0.00 0.00 0.00 72 1010.8
20260507015015 54 49 2.6 4.3 0.00 0.00 0.00 68 1010.7
20260507014016 54 49 1.7 5.2 0.00 0.00 0.00 67 1010.8
20260507013015 55 44 0.9 2.6 0.00 0.00 0.00 66 1010.7
20260507012035 55 42 1.7 2.6 0.00 0.00 0.00 65 1010.9
20260507011016 55 67 1.7 2.6 0.00 0.00 0.00 65 1010.9
20260507010015 54 43 1.7 3.5 0.00 0.00 0.00 63 1010.8
20260507005015 54 38 1.7 4.3 0.00 0.00 0.00 61 1010.8
20260507004015 54 75 1.7 5.2 0.00 0.00 0.00 60 1010.9
20260507003015 54 49 2.6 5.2 0.00 0.00 0.00 61 1010.9
20260507002015 54 57 2.6 6.1 0.00 0.00 0.00 59 1010.9
20260507001015 54 64 2.6 7.8 0.00 0.00 0.00 58 1010.9
20260507000015 54 53 4.3 8.7 0.00 0.00 0.00 57 1011.0
20260506235037 55 82 4.3 8.7 0.00 0.00 0.00 55 1011.0
20260506234057 56 52 4.3 7.8 0.00 0.00 0.00 54 1010.7
20260506233017 56 64 3.5 7.0 0.00 0.00 0.00 53 1010.5
20260506232017 56 47 4.3 7.8 0.00 0.00 0.00 52 1010.4
20260506231037 56 64 2.6 5.2 0.00 0.00 0.00 51 1010.4
20260506230017 56 49 3.5 7.8 0.00 0.00 0.00 50 1010.3
20260506225015 57 50 3.5 7.0 0.00 0.00 0.00 49 1010.4
20260506224017 58 53 3.5 7.8 0.00 0.00 0.00 48 1010.4
20260506223017 58 74 2.6 5.2 0.00 0.00 0.00 48 1010.3
20260506222017 58 75 3.5 5.2 0.00 0.00 0.00 48 1010.3
20260506221017 58 51 2.6 4.3 0.00 0.00 0.00 46 1010.1
20260506220017 58 50 2.6 3.5 0.00 0.00 0.00 46 1010.2
20260506215017 59 56 0.9 1.7 0.00 0.00 0.00 45 1010.3
20260506214017 59 56 0.9 2.6 0.00 0.00 0.00 44 1010.2
20260506213017 60 56 1.7 1.7 0.00 0.00 0.00 43 1010.3
20260506212017 60 55 0.9 1.7 0.00 0.00 0.00 42 1010.2
20260506211017 60 54 0.9 2.6 0.00 0.00 0.00 42 1010.1
20260506210017 59 68 0.9 0.9 0.00 0.00 0.00 42 1010.1
20260506205017 60 68 0.9 0.9 0.00 0.00 0.00 42 1010.0
20260506204035 60 68 0.0 0.9 0.00 0.00 0.00 40 1009.9
20260506203017 60 68 0.9 0.9 0.00 0.00 0.00 40 1009.9
20260506202015 61 68 0.9 0.9 0.00 0.00 0.00 40 1010.0
20260506201037 61 68 0.9 0.9 0.00 0.00 0.00 39 1009.8
20260506200015 62 68 0.0 0.9 0.00 0.00 0.00 38 1009.7
20260506195017 62 68 0.9 1.7 0.00 0.00 0.00 37 1009.6
20260506194017 63 68 0.9 1.7 0.00 0.00 0.00 36 1009.5
20260506193017 64 68 0.9 1.7 0.00 0.00 0.00 35 1009.7
20260506192017 65 68 0.9 1.7 0.00 0.00 0.00 34 1009.6
20260506191037 66 68 0.9 2.6 0.00 0.00 0.00 33 1009.5
20260506190018 67 73 1.7 2.6 0.00 0.00 0.00 31 1009.5
20260506185017 68 63 0.9 2.6 0.00 0.00 0.00 29 1009.7
20260506184037 70 314 0.0 1.7 0.00 0.00 0.00 28 1009.7
20260506183017 69 314 0.0 1.7 0.00 0.00 0.00 29 1009.5
20260506182017 69 313 0.9 3.5 0.00 0.00 0.00 29 1009.4
20260506181055 69 103 0.9 2.6 0.00 0.00 0.00 29 1009.4
20260506180015 68 114 1.7 4.3 0.00 0.00 0.00 30 1009.3
20260506175015 69 34 2.6 4.3 0.00 0.00 0.00 30 1009.6
20260506174015 69 51 1.7 4.3 0.00 0.00 0.00 30 1009.6
20260506173015 69 15 1.7 3.5 0.00 0.00 0.00 29 1009.7
20260506172015 69 19 1.7 4.3 0.00 0.00 0.00 29 1009.7
20260506171015 70 320 1.7 4.3 0.00 0.00 0.00 29 1009.7
20260506170015 70 270 1.7 5.2 0.00 0.00 0.00 29 1009.7
20260506165015 71 64 1.7 5.2 0.00 0.00 0.00 29 1009.9
20260506164015 70 111 1.7 4.3 0.00 0.00 0.00 30 1010.0
20260506163015 70 58 1.7 4.3 0.00 0.00 0.00 31 1010.0
20260506162055 69 15 1.7 7.0 0.00 0.00 0.00 31 1010.0
20260506161015 68 25 2.6 7.8 0.00 0.00 0.00 31 1010.0
20260506160035 68 5 2.6 6.1 0.00 0.00 0.00 31 1010.0
20260506155015 69 18 2.6 5.2 0.00 0.00 0.00 31 1010.1
20260506154035 68 248 1.7 6.1 0.00 0.00 0.00 31 1010.2
20260506153015 68 323 2.6 4.3 0.00 0.00 0.00 31 1010.3
20260506152015 68 350 1.7 5.2 0.00 0.00 0.00 32 1010.4
20260506151015 67 34 2.6 4.3 0.00 0.00 0.00 32 1010.6
20260506150015 67 273 0.9 3.5 0.00 0.00 0.00 34 1010.7
20260506145015 65 156 0.9 3.5 0.00 0.00 0.00 36 1010.7
20260506144015 65 119 0.9 2.6 0.00 0.00 0.00 36 1011.0
20260506143015 65 202 1.7 3.5 0.00 0.00 0.00 37 1011.2
20260506142015 66 33 1.7 6.1 0.00 0.00 0.00 36 1011.3
20260506141015 67 84 1.7 9.6 0.00 0.00 0.00 35 1011.5
20260506140015 68 61 3.5 7.8 0.00 0.00 0.00 34 1011.7
20260506135015 67 49 1.7 7.0 0.00 0.00 0.00 35 1011.7
20260506134015 66 43 0.9 6.1 0.00 0.00 0.00 36 1011.7
20260506133015 65 125 2.6 7.8 0.00 0.00 0.00 37 1011.8
20260506132015 67 222 2.6 6.1 0.00 0.00 0.00 36 1011.9
20260506131035 66 103 2.6 5.2 0.00 0.00 0.00 37 1012.0
20260506130015 65 111 5.2 8.7 0.00 0.00 0.00 38 1012.2
20260506125035 65 74 3.5 6.1 0.00 0.00 0.00 40 1012.2
20260506124015 64 39 3.5 6.1 0.00 0.00 0.00 40 1012.4
20260506123015 64 339 1.7 10.4 0.00 0.00 0.00 40 1012.4
20260506122016 64 263 1.7 5.2 0.00 0.00 0.00 40 1012.5
20260506121015 64 57 2.6 6.1 0.00 0.00 0.00 40 1012.6
20260506120015 64 56 4.3 9.6 0.00 0.00 0.00 41 1012.8
20260506115015 64 314 2.6 7.0 0.00 0.00 0.00 41 1012.8
20260506114015 63 89 4.3 10.4 0.00 0.00 0.00 42 1012.9
20260506113015 63 83 3.5 9.6 0.00 0.00 0.00 44 1013.0
20260506112015 63 107 3.5 8.7 0.00 0.00 0.00 45 1013.0
20260506111015 62 135 2.6 6.1 0.00 0.00 0.00 46 1013.1